sat.trackr.live / text

‹ back to catalog

STARLINK-3542

NORAD 51852 · 2022-022A

PAYLOAD ACTIVE UNKNOWN

§ Identity

Operator
Country
US
Launch date
2022-03-03
Launch site
AFETR
Launch vehicle
Mass (kg)
RCS (m²)

Purposes: comms

External: N2YO · Heavens-Above · Gunter

§ Orbital elements

Epoch: 2026-09-20T03:47:12.945408Z

Period
93.85 min
Inclination
53.1589°
Eccentricity
0.0001165
Mean motion
15.34401222 rev/d
Perigee alt
461.9 km
Apogee alt
463.5 km
Semi-major
6,840.8 km
B*
4.5126e-5
RAAN
210.9735°
Arg perigee
94.3169°
Mean anomaly
265.7967°
Rev number
25,132

§ Raw data

STARLINK-35421 51852U 22022A   26263.15778872  .00001149  00000+0  45126-4 0  99992 51852  53.1589 210.9735 0001165  94.3169 265.7967 15.34401222251325

JSON: /api/v1/satellites/51852 · /tle

For live sub-satellite position, see the globe view (requires WebGL).

§ Visibility from observer

Set your observer location to see the next 7 days of passes ≥ 10°. The values pass through the URL so the page stays shareable.

No JS? Fill the form by hand. The geolocation button needs JavaScript.